FW9155 Weather Reports


time (UTC)temp
C
wind
direction
speed
KPH
gust
KPH
rain 1hr
cm
rain 24hr
cm
rain mn
cm
humidity
%
barometer
mb
20260510144051 14 49 3.2 14.5 0.03 0.10 0.10 58 1022.3
20260510143754 13 32 3.2 14.5 0.03 0.10 0.10 60 1022.3
20260510143311 13 16 3.2 14.5 0.05 0.10 0.10 63 1022.2
20260510142759 13 42 3.2 14.5 0.08 0.10 0.10 64 1022.2
20260510142037 13 63 3.2 14.5 0.08 0.10 0.10 67 1022.3
20260510141515 13 48 4.8 16.1 0.10 0.10 0.10 69 1022.3
20260510141012 12 65 4.8 16.1 0.10 0.10 0.10 71 1022.3
20260510140449 12 49 1.6 9.7 0.10 0.10 0.10 71 1022.2
20260510135949 12 27 1.6 14.5 0.10 0.10 0.10 74 1022.3
20260510135941 12 346 1.6 14.5 0.10 0.10 0.10 75 1022.4
20260510134928 12 18 4.8 19.3 0.08 0.08 0.10 73 1022.1
20260510134404 12 101 4.8 19.3 0.08 0.08 0.08 72 1021.9
20260510133840 12 39 1.6 11.3 0.08 0.08 0.08 73 1022.0
20260510133316 13 347 1.6 3.2 0.05 0.05 0.05 70 1022.1
20260510132813 13 71 1.6 11.3 0.03 0.03 0.03 69 1021.8
20260510132255 13 70 3.2 9.7 0.03 0.03 0.03 68 1021.8
20260510131733 13 62 4.8 19.3 0.00 0.00 0.00 66 1021.6
20260510131648 13 59 6.4 22.5 0.00 0.00 0.00 65 1021.6
20260510130657 13 5 8.0 22.5 0.00 0.00 0.00 65 1021.7
20260510130158 14 41 9.7 24.1 0.00 0.00 0.00 64 1021.5
20260510125632 14 23 9.7 24.1 0.00 0.00 0.00 63 1021.2
20260510125107 15 59 11.3 24.1 0.00 0.00 0.00 62 1021.0
20260510124537 15 38 11.3 24.1 0.00 0.00 0.00 61 1020.9
20260510124038 15 32 8.0 22.5 0.00 0.00 0.00 61 1020.5
20260510123533 15 53 8.0 24.1 0.00 0.00 0.00 62 1020.3
20260510123030 15 65 9.7 24.1 0.00 0.00 0.00 61 1019.9
20260510122527 14 55 11.3 25.7 0.00 0.00 0.00 62 1019.5
20260510122002 14 54 11.3 29.0 0.00 0.00 0.00 63 1019.3
20260510121438 14 34 12.9 29.0 0.00 0.00 0.00 64 1019.0
20260510120906 14 55 14.5 29.0 0.00 0.00 0.00 64 1018.9
20260510120404 14 40 14.5 29.0 0.00 0.00 0.00 64 1018.7
20260510115902 14 54 12.9 27.4 0.00 0.00 0.00 64 1018.5
20260510115349 14 57 14.5 25.7 0.00 0.00 0.00 65 1018.3
20260510114852 14 57 14.5 27.4 0.00 0.00 0.00 65 1018.3
20260510114323 14 53 14.5 27.4 0.00 0.00 0.00 66 1017.9
20260510113820 14 33 14.5 27.4 0.00 0.00 0.00 67 1017.5
20260510113520 14 32 14.5 27.4 0.00 0.00 0.00 68 1017.4
20260510112737 14 40 12.9 27.4 0.00 0.00 0.00 69 1017.2
20260510112202 14 54 12.9 25.7 0.00 0.00 0.00 69 1017.0
20260510111636 15 355 14.5 25.7 0.00 0.00 0.00 69 1016.9
20260510111107 15 31 12.9 25.7 0.00 0.00 0.00 69 1016.9
20260510110603 15 5 11.3 25.7 0.00 0.00 0.00 68 1016.9
20260510110038 15 15 9.7 20.9 0.00 0.00 0.00 68 1016.9
20260510105535 15 24 9.7 20.9 0.00 0.00 0.00 68 1017.1
20260510105033 15 32 11.3 20.9 0.00 0.00 0.00 68 1016.9
20260510104727 15 48 12.9 24.1 0.00 0.00 0.00 67 1016.8
20260510104003 15 22 12.9 24.1 0.00 0.00 0.00 67 1016.7
20260510103459 15 46 12.9 25.7 0.00 0.00 0.00 67 1016.7
20260510102957 15 51 12.9 25.7 0.00 0.00 0.00 67 1016.6
20260510102434 15 15 11.3 25.7 0.00 0.00 0.00 67 1016.5
20260510101926 15 53 9.7 25.7 0.00 0.00 0.00 68 1016.5
20260510101640 15 53 9.7 20.9 0.00 0.00 0.00 68 1016.4
20260510100919 15 54 11.3 20.9 0.00 0.00 0.00 67 1016.1
20260510100412 15 55 12.9 22.5 0.00 0.00 0.00 68 1016.0
20260510100132 15 23 14.5 25.7 0.00 0.00 0.00 68 1016.0
20260510095612 15 43 12.9 25.7 0.00 0.00 0.00 68 1016.0
20260510095102 15 14 11.3 25.7 0.00 0.00 0.00 68 1015.8
20260510094338 15 61 14.5 29.0 0.00 0.00 0.00 67 1015.6
20260510093809 15 5 14.5 29.0 0.00 0.00 0.00 67 1015.5
20260510093304 15 51 12.9 24.1 0.00 0.00 0.00 67 1015.5
20260510092740 15 28 12.9 27.4 0.00 0.00 0.00 67 1015.5
20260510092214 15 46 12.9 27.4 0.00 0.00 0.00 67 1015.5
20260510091650 16 49 11.3 20.9 0.00 0.00 0.00 67 1015.4
20260510091124 16 52 9.7 24.1 0.00 0.00 0.00 67 1015.3
20260510090847 16 14 11.3 24.1 0.00 0.00 0.00 67 1015.4
20260510090118 16 12 14.5 25.7 0.00 0.00 0.00 66 1015.4
20260510085549 16 40 12.9 24.1 0.00 0.00 0.00 66 1015.3
20260510085314 16 338 11.3 24.1 0.00 0.00 0.00 67 1015.4
20260510084519 16 49 11.3 24.1 0.00 0.00 0.00 67 1015.4
20260510084015 16 26 9.7 24.1 0.00 0.00 0.00 68 1015.4
20260510083719 16 55 8.0 20.9 0.00 0.00 0.00 68 1015.4
20260510082924 16 32 6.4 20.9 0.00 0.00 0.00 67 1015.4
20260510082356 16 351 8.0 20.9 0.00 0.00 0.00 67 1015.4
20260510081851 17 64 6.4 19.3 0.00 0.00 0.00 66 1015.4
20260510081352 17 53 4.8 16.1 0.00 0.00 0.00 65 1015.3
20260510081043 17 35 4.8 16.1 0.00 0.00 0.00 64 1015.1
20260510080323 18 74 6.4 16.1 0.00 0.00 0.00 64 1015.1
20260510080026 18 53 6.4 14.5 0.00 0.00 0.00 63 1014.8
20260510075254 18 40 3.2 12.9 0.00 0.00 0.00 63 1014.6
20260510074725 18 71 3.2 8.0 0.00 0.00 0.00 62 1014.7
20260510074223 18 40 3.2 9.7 0.00 0.00 0.00 62 1014.7
20260510073721 18 68 3.2 9.7 0.00 0.00 0.00 62 1014.6
20260510073411 18 66 3.2 14.5 0.00 0.00 0.00 62 1014.5
20260510072630 18 65 4.8 14.5 0.00 0.00 0.00 62 1014.4
20260510072107 18 62 4.8 12.9 0.00 0.00 0.00 62 1014.4
20260510071548 18 74 4.8 14.5 0.00 0.00 0.00 62 1014.2
20260510071536 18 55 4.8 14.5 0.00 0.00 0.00 62 1014.1
20260510070529 18 65 4.8 11.3 0.00 0.00 0.00 61 1014.2
20260510070030 18 69 6.4 16.1 0.00 0.00 0.00 61 1014.2
20260510065733 18 75 8.0 20.9 0.00 0.00 0.00 60 1014.2
20260510065012 19 79 9.7 20.9 0.00 0.00 0.00 60 1014.2
20260510064511 19 82 11.3 20.9 0.00 0.00 0.00 60 1014.1
20260510064226 19 82 12.9 20.9 0.00 0.00 0.00 60 1014.1
20260510063508 19 59 12.9 25.7 0.00 0.00 0.00 59 1014.0
20260510062946 19 65 12.9 25.7 0.00 0.00 0.00 59 1014.0
20260510062422 19 65 12.9 25.7 0.00 0.00 0.00 60 1014.0
20260510061902 19 84 11.3 25.7 0.00 0.00 0.00 60 1013.8
20260510061344 19 58 9.7 19.3 0.00 0.00 0.00 61 1013.7
20260510060846 19 61 9.7 17.7 0.00 0.00 0.00 62 1013.7
20260510060544 19 69 8.0 16.1 0.00 0.00 0.00 62 1013.7
20260510055821 19 59 6.4 16.1 0.00 0.00 0.00 62 1013.5
20260510055516 19 79 8.0 17.7 0.00 0.00 0.00 62 1013.5
20260510054737 19 55 8.0 17.7 0.00 0.00 0.00 62 1013.3
20260510054209 19 63 4.8 16.1 0.00 0.00 0.00 61 1013.4
20260510053710 19 54 4.8 16.1 0.00 0.00 0.00 60 1013.5
20260510053148 20 75 6.4 16.1 0.00 0.00 0.00 59 1013.3
20260510052647 20 79 6.4 12.9 0.00 0.00 0.00 59 1013.3
20260510052132 20 63 8.0 19.3 0.00 0.00 0.00 58 1013.2
20260510051635 20 78 9.7 17.7 0.00 0.00 0.00 58 1013.2
20260510051106 20 65 8.0 19.3 0.00 0.00 0.00 58 1013.1
20260510050543 20 56 8.0 16.1 0.00 0.00 0.00 57 1013.1
20260510050020 20 72 4.8 16.1 0.00 0.00 0.00 57 1013.2
20260510045451 20 61 3.2 8.0 0.00 0.00 0.00 57 1013.2
20260510045210 20 76 1.6 8.0 0.00 0.00 0.00 56 1013.1
20260510044445 20 84 1.6 4.8 0.00 0.00 0.00 56 1013.0
20260510043943 21 88 1.6 6.4 0.00 0.00 0.00 55 1013.1
20260510043418 21 67 1.6 8.0 0.00 0.00 0.00 54 1013.1
20260510042852 21 67 1.6 8.0 0.00 0.00 0.00 53 1013.2
20260510042323 21 75 1.6 6.4 0.00 0.00 0.00 53 1013.1
20260510041822 21 51 1.6 6.4 0.00 0.00 0.00 53 1013.2
20260510041256 21 52 1.6 6.4 0.00 0.00 0.00 52 1013.2
20260510040727 21 57 3.2 9.7 0.00 0.00 0.00 51 1013.3
20260510040225 22 78 4.8 16.1 0.00 0.00 0.00 51 1013.2
20260510035656 22 54 3.2 16.1 0.00 0.00 0.00 50 1013.2
20260510035156 22 350 1.6 4.8 0.00 0.00 0.00 50 1013.2
20260510034627 22 36 1.6 8.0 0.00 0.00 0.00 49 1013.1
20260510034126 21 39 3.2 8.0 0.00 0.00 0.00 49 1013.0
20260510033557 21 31 3.2 6.4 0.00 0.00 0.00 49 1012.9
20260510033327 22 61 3.2 8.0 0.00 0.00 0.00 49 1012.7
20260510032527 22 57 3.2 8.0 0.00 0.00 0.00 48 1012.5
20260510032023 23 54 1.6 14.5 0.00 0.00 0.00 46 1012.5
20260510031720 23 67 1.6 14.5 0.00 0.00 0.00 44 1012.5
20260510030931 23 122 4.8 16.1 0.00 0.00 0.00 43 1012.2
20260510030406 23 205 8.0 19.3 0.00 0.00 0.00 42 1012.3
20260510025840 23 207 4.8 19.3 0.00 0.00 0.00 43 1012.2
20260510025311 23 157 4.8 11.3 0.00 0.00 0.00 44 1012.1
20260510024807 23 187 4.8 12.9 0.00 0.00 0.00 44 1012.1
20260510024301 23 167 3.2 12.9 0.00 0.00 0.00 43 1012.0
20260510023800 23 187 1.6 9.7 0.00 0.00 0.00 44 1012.1
20260510023456 23 144 1.6 6.4 0.00 0.00 0.00 44 1012.1
20260510022705 23 190 1.6 6.4 0.00 0.00 0.00 44 1012.3
20260510022149 23 225 1.6 3.2 0.00 0.00 0.00 45 1012.2
20260510021651 23 136 1.6 3.2 0.00 0.00 0.00 44 1012.1
20260510021147 23 32 1.6 12.9 0.00 0.00 0.00 43 1012.2
20260510020650 24 261 4.8 12.9 0.00 0.00 0.00 42 1012.2
20260510020123 24 222 4.8 11.3 0.00 0.00 0.00 41 1012.1
20260510015622 23 198 3.2 11.3 0.00 0.00 0.00 41 1012.0
20260510015315 23 206 1.6 6.4 0.00 0.00 0.00 43 1011.8
20260510014552 23 200 3.2 6.4 0.00 0.00 0.00 43 1011.7
20260510014023 24 229 1.6 6.4 0.00 0.00 0.00 42 1011.5
20260510013523 24 218 1.6 6.4 0.00 0.00 0.00 41 1011.3
20260510013221 24 216 1.6 6.4 0.00 0.00 0.00 41 1011.2
20260510012501 25 212 1.6 4.8 0.00 0.00 0.00 41 1011.0
20260510011931 25 198 3.2 11.3 0.00 0.00 0.00 40 1010.8
20260510011430 25 161 4.8 14.5 0.00 0.00 0.00 39 1010.6
20260510010920 25 183 4.8 14.5 0.00 0.00 0.00 38 1010.2
20260510010407 25 176 6.4 14.5 0.00 0.00 0.00 37 1009.9
20260510005907 25 159 6.4 19.3 0.00 0.00 0.00 37 1009.6
20260510005345 25 182 4.8 19.3 0.00 0.00 0.00 36 1009.5
20260510004846 26 172 6.4 14.5 0.00 0.00 0.00 36 1009.4
20260510004340 26 169 8.0 16.1 0.00 0.00 0.00 35 1009.3
20260510003844 26 159 8.0 16.1 0.00 0.00 0.00 35 1009.2
20260510003422 26 194 8.0 14.5 0.00 0.00 0.00 34 1008.9
20260510002307 27 148 9.7 24.1 0.00 0.00 0.00 32 1008.9
20260510001752 27 198 6.4 19.3 0.00 0.00 0.00 31 1008.8
20260510001514 27 161 8.0 17.7 0.00 0.00 0.00 30 1008.8
20260510000749 27 156 6.4 17.7 0.00 0.00 0.00 31 1008.7
20260510000248 27 134 4.8 17.7 0.00 0.00 0.00 31 1008.8
20260509235747 27 171 6.4 17.7 0.00 0.00 0.00 31 1008.9
20260509235238 27 118 8.0 19.3 0.00 0.00 0.00 30 1009.0
20260509234738 27 201 9.7 19.3 0.00 0.00 0.00 31 1008.9
20260509234434 28 155 8.0 17.7 0.00 0.00 0.00 30 1008.9
20260509233653 28 221 9.7 17.7 0.00 0.00 0.00 31 1009.0
20260509233416 28 147 9.7 17.7 0.00 0.00 0.00 30 1009.0
20260509233134 28 121 9.7 19.3 0.00 0.00 0.00 30 1009.1
20260509232129 28 159 9.7 19.3 0.00 0.00 0.00 29 1009.1
20260509231620 28 138 9.7 19.3 0.00 0.00 0.00 29 1009.1
20260509231120 28 190 9.7 19.3 0.00 0.00 0.00 30 1009.1
20260509230623 28 202 8.0 19.3 0.00 0.00 0.00 30 1009.0
20260509230115 28 159 8.0 16.1 0.00 0.00 0.00 29 1009.0
20260509225612 28 200 6.4 16.1 0.00 0.00 0.00 28 1009.0
20260509225107 28 147 4.8 11.3 0.00 0.00 0.00 28 1009.0
20260509224602 28 158 4.8 14.5 0.00 0.00 0.00 30 1008.9
20260509224054 28 175 6.4 14.5 0.00 0.00 0.00 28 1008.9
20260509223524 29 154 4.8 12.9 0.00 0.00 0.00 27 1008.8
20260509223024 29 126 3.2 8.0 0.00 0.00 0.00 30 1008.8
20260509222458 28 171 4.8 14.5 0.00 0.00 0.00 25 1008.8
20260509221952 29 190 4.8 14.5 0.00 0.00 0.00 27 1008.8
20260509221448 29 159 4.8 16.1 0.00 0.00 0.00 26 1008.7
20260509220922 29 277 6.4 16.1 0.00 0.00 0.00 26 1008.7
20260509220355 29 215 6.4 14.5 0.00 0.00 0.00 26 1008.7
20260509215852 29 207 8.0 14.5 0.00 0.00 0.00 26 1008.6
20260509215611 28 238 9.7 22.5 0.00 0.00 0.00 26 1008.7
20260509215258 29 254 6.4 22.5 0.00 0.00 0.00 27 1008.6
20260509214321 29 176 1.6 17.7 0.00 0.00 0.00 26 1008.6
20260509213808 29 157 3.2 12.9 0.00 0.00 0.00 25 1008.7
20260509213308 28 117 6.4 12.9 0.00 0.00 0.00 25 1008.7
20260509212741 28 121 4.8 16.1 0.00 0.00 0.00 27 1008.9
20260509212212 29 148 4.8 16.1 0.00 0.00 0.00 26 1008.9
20260509211707 28 244 6.4 17.7 0.00 0.00 0.00 25 1009.0
20260509211209 29 203 3.2 17.7 0.00 0.00 0.00 26 1009.1
20260509210657 29 152 1.6 8.0 0.00 0.00 0.00 28 1009.0
20260509210159 28 248 4.8 17.7 0.00 0.00 0.00 26 1009.1
20260509205631 28 148 4.8 17.7 0.00 0.00 0.00 26 1009.3
20260509205331 29 88 1.6 11.3 0.00 0.00 0.00 25 1009.3
20260509204541 28 57 1.6 12.9 0.00 0.00 0.00 26 1009.4
20260509204009 28 128 4.8 12.9 0.00 0.00 0.00 26 1009.6
20260509203659 28 138 4.8 12.9 0.00 0.00 0.00 26 1009.5
20260509202940 28 228 6.4 14.5 0.00 0.00 0.00 25 1009.6
20260509202702 28 231 4.8 14.5 0.00 0.00 0.00 27 1009.7
20260509201910 28 226 1.6 11.3 0.00 0.00 0.00 27 1009.9
20260509201408 28 165 3.2 17.7 0.00 0.00 0.00 27 1009.9
20260509200843 28 236 6.4 17.7 0.00 0.00 0.00 27 1010.0
20260509200317 28 190 8.0 24.1 0.00 0.00 0.00 27 1010.1
20260509195748 28 185 9.7 24.1 0.00 0.00 0.00 26 1010.2
20260509195245 28 149 8.0 19.3 0.00 0.00 0.00 27 1010.1
20260509194940 28 216 6.4 19.3 0.00 0.00 0.00 26 1010.1
20260509194154 28 170 4.8 14.5 0.00 0.00 0.00 27 1010.3
20260509193653 28 216 4.8 14.5 0.00 0.00 0.00 25 1010.3
20260509193127 27 162 6.4 14.5 0.00 0.00 0.00 26 1010.4
20260509192621 27 188 9.7 17.7 0.00 0.00 0.00 27 1010.5
20260509192346 27 236 11.3 17.7 0.00 0.00 0.00 26 1010.5
20260509191818 27 234 9.7 19.3 0.00 0.00 0.00 28 1010.6
20260509191026 28 199 9.7 24.1 0.00 0.00 0.00 31 1010.5
20260509190525 28 232 9.7 24.1 0.00 0.00 0.00 30 1010.4
20260509185956 28 234 9.7 24.1 0.00 0.00 0.00 32 1010.5
20260509185455 27 200 11.3 19.3 0.00 0.00 0.00 31 1010.6
20260509184950 27 257 11.3 27.4 0.00 0.00 0.00 29 1010.7
20260509184449 27 181 14.5 24.1 0.00 0.00 0.00 32 1010.8
20260509183920 27 221 14.5 30.6 0.00 0.00 0.00 30 1010.8
20260509183638 27 188 14.5 25.7 0.00 0.00 0.00 32 1010.8
20260509182849 27 231 12.9 25.7 0.00 0.00 0.00 31 1010.8
20260509182346 27 171 11.3 19.3 0.00 0.00 0.00 31 1010.7
20260509182105 27 220 11.3 19.3 0.00 0.00 0.00 30 1010.9
20260509181342 27 216 9.7 20.9 0.00 0.00 0.00 29 1011.0
20260509180816 27 241 8.0 22.5 0.00 0.00 0.00 31 1011.0
20260509180315 27 209 9.7 22.5 0.00 0.00 0.00 29 1011.1
20260509175810 27 273 12.9 22.5 0.00 0.00 0.00 29 1011.2
20260509175307 27 279 14.5 22.5 0.00 0.00 0.00 29 1011.3
20260509174741 27 260 11.3 22.5 0.00 0.00 0.00 31 1011.3
20260509174502 27 248 9.7 22.5 0.00 0.00 0.00 33 1011.3
20260509173736 27 250 11.3 19.3 0.00 0.00 0.00 33 1011.4
20260509173235 27 194 11.3 19.3 0.00 0.00 0.00 31 1011.4
20260509172711 26 244 9.7 17.7 0.00 0.00 0.00 32 1011.5
20260509172153 26 281 8.0 16.1 0.00 0.00 0.00 35 1011.5
20260509171651 26 236 11.3 22.5 0.00 0.00 0.00 36 1011.6
20260509171152 26 240 14.5 22.5 0.00 0.00 0.00 36 1011.6
20260509170653 26 235 14.5 25.7 0.00 0.00 0.00 36 1011.6
20260509170124 26 238 16.1 24.1 0.00 0.00 0.00 35 1011.7
20260509165622 25 252 12.9 22.5 0.00 0.00 0.00 35 1011.7
20260509165123 25 249 9.7 20.9 0.00 0.00 0.00 39 1011.7
20260509164604 25 257 9.7 20.9 0.00 0.00 0.00 38 1011.7
20260509164103 25 270 12.9 25.7 0.00 0.00 0.00 37 1011.7
20260509163606 25 244 11.3 25.7 0.00 0.00 0.00 38 1011.7
20260509163047 25 269 9.7 22.5 0.00 0.00 0.00 39 1011.8
20260509162547 25 235 8.0 22.5 0.00 0.00 0.00 39 1011.8
20260509162026 25 235 8.0 17.7 0.00 0.00 0.00 42 1011.8
20260509161526 25 234 11.3 19.3 0.00 0.00 0.00 42 1011.8
20260509160959 25 251 12.9 22.5 0.00 0.00 0.00 39 1011.7
20260509160453 25 242 12.9 24.1 0.00 0.00 0.00 40 1011.7
20260509155956 24 235 14.5 24.1 0.00 0.00 0.00 41 1011.7
20260509155434 24 225 16.1 24.1 0.00 0.00 0.00 40 1011.7
20260509154937 24 255 14.5 24.1 0.00 0.00 0.00 40 1011.7
20260509154415 24 248 12.9 20.9 0.00 0.00 0.00 42 1011.6
20260509153915 23 267 11.3 22.5 0.00 0.00 0.00 42 1011.7
20260509153355 23 230 11.3 22.5 0.00 0.00 0.00 45 1011.7
20260509152829 23 240 11.3 19.3 0.00 0.00 0.00 46 1011.7
20260509152306 23 238 11.3 20.9 0.00 0.00 0.00 47 1011.6
20260509151737 22 245 8.0 20.9 0.00 0.00 0.00 47 1011.6
20260509151240 22 232 6.4 16.1 0.00 0.00 0.00 53 1011.6
20260509150711 22 230 9.7 17.7 0.00 0.00 0.00 52 1011.7
20260509150153 22 228 9.7 17.7 0.00 0.00 0.00 54 1011.7
20260509145847 21 219 8.0 14.5 0.00 0.00 0.00 54 1011.5
20260509145129 21 251 8.0 17.7 0.00 0.00 0.00 58 1011.6
20260509144600 21 243 8.0 17.7 0.00 0.00 0.00 59 1011.6